Theta_e
286 286 286 286 286 285 285 285 285 285 284 283 283 283 283 283 282 282 281 281 281 280 280 280 280 279 279 278 278 278 278 278 278 278 278 277 277 277 276 276 276 276 276 275 276 275 275 274 274 274 274 273 274 274 274 274 273 274 274 273 273 273 272 271 270 270 272 275 274 274 274 274 273 273 273 273 273 274 276 274 274 274 274 274 275
286 286 286 286 285 286 285 284 284 284 283 282 283 282 282 282 282 280 280 280 280 280 280 280 279 279 278 278 278 278 278 278 278 278 277 277 276 276 276 275 275 274 274 273 274 274 273 272 272 272 273 272 273 273 273 272 272 272 272 272 271 271 272 270 269 269 268 271 272 273 272 273 271 273 272 272 272 274 273 273 274 274 274 274 274
286 286 286 285 285 285 285 283 283 283 283 282 282 282 282 281 281 280 280 280 280 280 280 279 279 278 278 278 278 278 278 278 278 277 277 276 275 275 275 275 274 273 273 272 272 272 271 271 271 271 272 271 272 272 272 271 272 271 270 271 270 270 271 271 269 267 268 268 270 270 271 272 271 272 273 273 273 273 272 273 273 274 275 275 275
286 285 285 285 285 284 284 283 282 282 282 283 282 282 281 281 281 280 280 280 279 279 279 279 278 278 278 277 277 277 277 277 276 276 276 276 275 275 274 274 273 273 273 272 272 271 271 271 270 270 270 269 270 270 271 271 270 270 270 270 270 270 270 270 270 269 268 267 269 270 271 271 271 272 273 273 273 273 273 273 274 273 274 275 274
285 285 285 284 284 283 283 283 282 282 282 282 282 281 281 280 280 280 280 279 279 279 278 278 278 278 277 277 276 276 276 276 276 275 275 275 274 274 273 273 273 272 272 272 273 271 271 270 270 270 270 269 269 268 269 269 270 270 270 270 270 270 270 270 270 270 268 268 268 270 271 271 272 272 273 272 272 273 273 273 273 273 273 274 274
285 285 284 284 283 283 283 282 282 282 282 282 282 281 280 280 280 280 279 279 278 278 278 277 278 277 277 276 276 276 276 275 275 275 274 274 274 273 273 272 272 272 272 272 272 272 271 271 271 271 270 269 269 269 270 269 270 269 269 270 270 270 270 270 270 269 269 269 269 269 271 270 271 272 273 273 272 272 272 273 273 273 273 273 274
285 284 284 284 283 283 283 283 283 282 282 282 282 281 280 280 280 279 279 279 278 277 277 277 277 277 276 276 276 275 275 275 274 274 274 273 273 273 273 272 272 272 271 271 271 271 271 270 270 269 269 270 270 270 270 269 268 268 269 268 269 269 270 270 270 270 270 269 269 270 270 271 271 270 272 274 273 272 271 271 272 274 274 274 273
285 284 284 283 283 283 283 283 283 283 282 282 281 280 280 280 280 279 279 278 278 277 277 277 276 276 276 276 275 275 275 274 274 273 273 273 273 273 272 271 271 270 270 270 270 270 270 270 270 271 271 271 270 270 269 269 269 269 270 270 270 270 270 270 270 270 270 270 270 270 271 270 271 272 273 272 272 272 273 273 271 271 273 274 274
285 284 284 283 284 284 284 283 282 282 281 281 280 280 280 279 279 279 278 278 278 278 277 277 276 275 275 275 274 274 274 274 274 274 273 273 272 272 271 271 270 270 269 269 269 270 270 270 271 271 272 273 274 273 273 272 270 270 271 271 271 271 270 270 270 270 270 270 269 271 270 270 271 271 271 271 270 271 273 274 272 273 273 273 274
285 284 284 284 284 284 283 282 282 281 281 280 280 280 279 279 279 278 278 278 277 277 276 276 275 275 274 274 274 274 274 274 276 278 277 273 271 271 270 270 270 270 269 269 269 270 270 271 271 273 274 274 275 275 276 277 277 275 273 272 271 271 270 270 270 270 270 269 269 270 269 269 270 271 271 271 273 274 274 273 272 273 273 273 274
285 284 284 284 284 283 282 281 281 280 281 280 280 279 279 278 278 277 277 276 276 276 276 275 274 274 274 273 273 273 273 274 278 280 279 278 273 271 270 269 269 270 270 269 269 270 271 271 271 273 274 275 275 276 277 277 278 278 278 278 278 275 273 272 272 272 270 269 270 270 270 270 271 272 272 272 273 274 273 274 273 273 272 271 270
284 284 285 284 283 282 282 281 280 280 280 280 279 278 278 277 277 276 276 275 275 275 274 274 274 274 273 273 273 273 273 276 280 281 280 279 276 271 270 270 270 270 270 270 271 271 271 272 272 272 273 272 272 272 274 276 276 277 277 278 278 279 279 276 274 273 274 273 273 273 273 273 273 274 274 274 274 274 274 274 273 272 272 271 271
284 284 284 283 282 282 281 280 280 279 279 279 278 277 277 276 276 275 275 275 274 273 274 274 273 273 273 272 272 272 272 278 281 282 281 280 278 273 270 270 270 270 271 271 271 271 272 272 272 273 273 275 274 272 271 271 275 276 277 277 278 278 278 279 280 277 276 274 273 273 274 274 273 273 274 274 275 273 273 273 273 273 273 272 272
284 284 283 283 282 281 280 280 280 279 279 278 277 277 276 276 276 276 275 274 274 274 273 273 273 273 272 272 272 272 271 277 281 282 281 281 279 275 270 270 271 271 271 272 272 272 273 272 272 272 272 271 271 271 271 271 272 272 273 273 274 275 278 278 278 278 278 275 274 272 274 275 273 275 276 277 275 273 273 273 273 273 273 272 274
283 283 282 282 282 281 280 280 279 279 278 278 277 276 276 276 276 275 275 274 274 274 273 273 272 272 272 271 271 271 270 278 281 282 282 282 280 275 271 271 272 272 273 273 273 273 273 273 272 271 270 270 271 272 271 272 272 272 273 273 273 274 274 274 275 275 275 275 275 275 275 276 276 276 276 277 276 275 275 274 274 274 274 275 275
282 282 282 282 281 281 280 279 279 278 278 277 276 276 276 276 275 275 274 274 274 274 273 273 272 271 271 271 270 269 270 278 281 282 282 282 282 274 273 273 273 273 273 274 274 273 273 272 271 270 270 271 273 276 276 275 275 274 274 274 274 274 275 277 279 279 278 278 277 276 276 276 278 277 277 277 277 277 277 276 276 275 273 272 271
281 281 281 281 281 281 280 279 279 278 277 277 276 276 276 275 275 274 274 274 273 273 272 272 271 271 270 270 269 269 269 277 282 282 282 282 281 275 274 274 273 273 273 273 273 272 272 272 271 271 271 272 274 276 277 277 274 274 273 273 273 273 274 276 278 279 279 279 279 279 280 280 281 281 281 280 278 276 273 271 270 271 269 268 269
280 280 281 281 280 280 280 279 279 278 277 276 276 276 276 275 275 274 273 273 272 272 271 270 270 270 270 269 270 269 269 276 281 282 282 282 280 275 274 273 272 272 272 272 272 272 272 274 273 272 272 272 276 277 277 276 274 273 273 272 272 273 273 274 274 274 277 277 278 278 278 277 277 277 277 276 276 275 270 267 269 270 268 268 267
280 280 281 280 280 279 279 279 279 277 276 276 275 275 275 274 274 273 273 272 272 271 270 269 268 268 269 269 272 270 269 275 281 281 281 282 279 274 274 272 271 271 271 272 272 272 272 274 275 275 275 275 277 277 277 276 274 273 273 273 272 271 272 273 271 271 271 272 272 271 270 271 270 269 269 274 275 274 271 270 270 269 267 268 268
279 278 278 278 277 277 279 279 278 277 276 276 275 275 274 272 271 271 270 270 269 269 268 268 267 268 268 268 270 269 269 272 277 281 281 281 280 274 273 272 271 271 271 271 270 271 272 272 274 276 277 276 276 276 276 277 275 275 274 272 271 270 272 271 271 272 272 269 268 268 267 268 268 268 269 269 270 271 271 271 270 270 269 269 270
277 277 277 276 276 276 277 278 277 275 275 274 274 272 272 271 270 270 269 268 269 268 268 267 267 267 268 268 269 268 268 270 275 280 280 281 280 276 273 272 271 271 270 270 270 271 272 273 273 274 275 275 275 276 276 277 277 275 274 272 271 272 274 272 272 271 267 266 266 265 265 266 267 268 268 268 269 270 270 271 271 271 270 268 268
276 275 275 275 274 275 275 276 275 274 273 273 272 271 271 270 270 269 269 268 268 267 267 267 266 266 266 267 267 267 269 273 272 278 280 280 280 278 273 272 272 270 270 270 271 272 272 272 271 272 274 274 275 276 277 277 277 274 273 274 275 275 273 272 268 265 264 264 263 263 264 264 265 266 267 268 268 270 270 270 271 271 271 270 269
275 275 274 274 274 274 274 274 274 273 273 273 272 271 270 269 268 268 268 267 267 267 266 266 265 265 265 266 266 267 268 270 274 275 279 280 280 279 276 274 276 272 270 270 272 272 272 271 271 273 274 274 275 276 276 276 275 273 274 274 274 275 273 266 265 263 262 262 263 262 263 264 264 265 266 267 268 269 269 270 270 270 270 271 271
275 275 274 274 274 274 273 273 273 273 272 272 272 270 269 268 268 268 267 267 267 266 266 266 265 265 265 265 266 266 268 269 273 276 276 279 279 280 278 277 277 273 273 272 272 272 271 271 271 273 274 275 275 275 274 274 272 273 273 273 273 272 266 263 262 261 262 262 262 262 263 264 265 265 266 267 268 268 269 269 269 270 271 271 271
274 274 274 274 274 273 273 273 272 272 271 271 270 269 268 267 267 267 267 267 267 266 266 266 266 266 265 265 265 266 268 269 270 274 277 278 279 279 279 278 278 277 273 273 273 272 272 273 274 274 274 273 273 272 271 270 271 271 272 272 270 264 262 261 261 261 261 261 262 262 263 264 265 266 267 267 268 268 268 268 269 269 270 270 271
274 274 274 273 273 272 272 272 271 271 271 271 271 270 268 267 267 267 267 267 267 267 266 266 266 266 265 265 265 266 267 268 270 272 274 276 277 278 278 278 278 278 274 272 273 274 274 274 273 271 270 269 268 266 265 266 270 270 269 268 264 261 260 260 261 261 261 262 262 262 263 264 265 266 267 267 266 266 266 266 267 267 268 268 268
275 275 274 273 272 272 272 271 270 270 270 270 270 269 269 268 268 267 267 267 267 267 267 266 266 266 265 266 266 266 266 267 269 270 271 273 274 275 276 275 277 276 273 272 272 269 270 269 269 270 268 269 268 268 267 267 264 263 262 262 260 260 260 260 261 262 262 262 262 262 263 264 265 265 265 265 265 265 267 267 267 267 267 268 267
275 275 274 273 271 271 271 269 269 269 269 270 269 269 268 269 269 268 267 267 267 267 267 266 266 266 266 266 266 266 266 266 267 269 270 271 271 273 273 272 272 271 269 268 267 267 266 267 265 262 261 260 259 258 259 259 260 260 260 260 260 261 263 266 266 263 262 262 262 263 263 263 262 263 264 264 264 265 267 267 267 266 267 267 265
274 274 273 272 271 270 271 270 270 270 269 269 270 270 269 268 269 269 270 270 270 269 268 268 268 268 268 267 266 266 266 266 267 271 270 273 271 271 271 270 270 268 270 270 264 263 262 258 256 257 256 255 255 255 256 255 257 258 257 257 258 259 259 258 259 260 261 261 261 261 262 262 262 263 263 263 264 265 267 266 267 267 267 267 265
273 273 272 271 271 270 270 269 269 269 269 268 268 268 270 272 271 269 269 272 274 274 273 269 269 269 269 269 269 267 266 267 272 274 274 275 275 275 274 274 273 270 272 273 266 259 258 256 256 254 256 255 254 255 255 255 256 257 257 261 260 258 259 259 260 260 261 261 261 261 261 262 262 262 262 263 264 265 266 268 266 267 265 265 264
273 273 272 271 270 270 269 269 268 268 268 268 268 267 267 269 273 273 272 272 273 274 275 274 274 274 270 268 270 272 272 273 274 275 275 276 276 276 275 275 275 274 273 266 260 257 256 255 255 255 254 255 254 255 256 256 256 256 257 257 257 258 260 259 260 260 261 261 261 261 262 262 262 263 263 263 264 265 266 266 266 266 265 264 264
274 273 272 271 270 269 269 269 268 268 267 267 267 266 266 266 268 273 274 273 274 275 275 275 275 275 274 272 270 270 273 275 276 276 277 277 276 276 276 276 275 275 273 270 258 256 255 254 254 253 254 254 255 256 256 255 256 256 256 256 257 258 259 259 260 261 260 261 261 261 262 262 262 263 263 264 265 265 265 265 265 265 265 265 264
274 274 273 271 270 268 268 268 267 267 267 266 266 266 266 266 265 267 270 274 275 275 276 276 276 276 275 274 274 273 274 276 277 277 277 277 277 277 276 276 275 274 271 261 258 257 254 254 253 253 253 254 254 255 255 256 256 256 256 256 257 258 259 260 262 261 260 261 261 262 262 262 263 263 264 264 265 264 265 265 265 265 264 264 264
275 275 274 271 269 268 268 267 267 267 267 267 266 266 266 266 266 267 267 268 271 274 276 277 277 276 276 275 275 276 277 277 278 278 278 277 277 276 275 272 273 272 266 257 257 255 255 253 253 253 253 254 254 255 255 255 256 256 256 257 258 258 259 261 260 260 260 260 261 261 262 262 263 263 263 264 265 265 265 265 265 264 263 264 263
275 273 271 270 270 269 268 268 267 267 267 266 266 266 266 267 267 268 267 268 269 269 270 273 276 276 274 275 277 278 278 278 278 278 277 277 276 276 274 266 262 259 258 256 256 255 254 254 253 253 253 253 254 254 255 255 255 255 255 256 257 258 258 259 259 259 259 260 261 261 262 262 263 264 264 264 265 265 265 264 264 264 263 263 263
275 275 274 271 270 270 268 267 267 266 266 266 266 267 267 267 267 268 269 269 270 270 270 271 272 275 277 277 278 278 278 278 277 277 276 276 276 273 262 260 258 256 256 255 254 254 253 253 252 253 253 253 254 254 255 254 255 255 255 256 257 257 257 257 258 259 261 261 261 261 262 262 263 264 265 265 265 265 265 264 264 264 264 264 264
275 275 275 272 270 270 269 268 267 267 268 267 267 267 267 268 268 269 269 269 269 270 270 270 271 272 274 274 276 278 278 277 277 276 275 275 274 265 261 260 258 256 255 254 253 253 252 252 252 252 252 253 253 254 254 254 254 255 257 257 257 257 256 257 259 261 261 260 260 260 261 262 264 264 265 265 265 265 264 264 264 264 264 264 264
275 275 275 273 270 269 268 267 267 268 267 267 267 267 267 268 268 269 269 269 269 269 269 269 271 270 270 271 276 274 274 276 276 274 273 270 261 258 258 257 256 256 255 253 253 251 251 250 250 251 251 251 252 252 252 253 253 254 255 255 256 256 261 260 260 259 259 259 260 261 262 263 264 265 266 265 265 264 264 264 264 263 264 264 264
275 275 275 274 272 269 268 267 267 267 267 267 267 267 267 267 268 269 269 269 269 268 269 269 269 269 269 272 272 273 271 265 262 259 257 256 256 256 256 256 255 254 253 252 252 251 250 250 251 250 251 251 251 251 251 252 253 254 255 255 255 256 256 256 257 258 258 259 260 261 263 263 264 265 266 266 265 264 263 263 264 263 263 263 263
273 273 274 274 272 270 268 267 267 266 266 266 266 267 267 267 268 268 268 268 268 268 268 268 267 268 269 270 269 267 263 261 259 256 255 254 254 254 255 254 254 254 253 251 251 250 250 250 249 249 249 249 249 249 250 251 252 254 254 255 255 255 256 257 257 258 258 259 260 262 263 264 265 266 266 266 265 264 264 263 263 263 263 263 263
273 273 271 273 271 269 267 267 266 266 266 266 267 267 267 267 268 268 268 267 267 267 267 267 267 266 266 267 270 268 262 259 257 256 255 255 254 253 254 254 253 252 251 251 250 249 249 249 249 249 248 248 248 249 250 250 252 253 253 255 255 256 256 257 257 258 258 259 261 262 263 264 265 266 266 265 267 266 264 264 263 263 264 264 264
272 272 270 270 270 268 266 266 266 266 266 266 266 267 266 267 267 267 266 266 265 265 265 264 263 263 266 271 270 268 260 257 256 256 255 254 254 253 253 252 252 251 251 250 249 249 248 248 248 248 248 248 248 249 249 250 251 251 252 254 255 255 256 256 257 258 259 260 262 263 264 264 265 267 267 267 264 263 263 263 263 263 263 263 263
271 270 269 268 268 267 266 266 266 266 266 266 266 265 265 266 266 265 265 265 265 264 263 261 261 263 267 270 268 265 257 256 255 255 254 254 253 253 252 252 250 250 249 248 248 248 248 248 248 248 248 248 248 249 249 250 250 250 252 253 254 255 255 256 257 258 260 261 262 263 264 264 266 266 266 264 263 263 263 263 263 263 263 263 263
269 268 267 267 267 266 265 266 265 265 265 265 265 265 265 265 265 265 264 263 263 262 261 261 262 264 266 265 262 257 256 256 255 254 254 253 253 252 251 250 248 248 247 247 247 246 247 247 247 248 247 248 248 248 249 250 250 250 251 253 254 256 256 257 257 258 260 261 262 263 264 265 267 266 265 264 263 262 262 262 263 263 263 263 263
267 266 266 265 265 265 264 264 264 264 264 263 264 264 264 264 263 263 262 261 260 260 260 261 262 261 259 257 257 256 255 254 254 253 253 253 252 251 250 248 248 247 246 247 247 246 245 246 246 245 247 248 248 248 249 250 250 251 251 253 253 254 255 256 257 259 261 262 263 263 264 266 267 266 265 264 263 262 262 262 262 263 263 263 262
265 265 264 264 263 263 263 263 263 263 263 263 262 262 262 262 262 261 260 260 260 260 260 260 258 257 257 256 255 254 254 254 253 253 252 251 251 250 248 248 247 246 246 246 246 245 246 246 246 246 247 247 248 248 249 249 250 251 252 252 253 254 255 257 259 261 262 263 263 263 266 267 266 265 265 264 263 263 262 262 263 263 262 262 263
264 264 263 263 263 262 262 262 262 262 262 262 262 261 260 260 260 259 259 259 259 259 258 258 257 256 255 255 254 253 253 253 252 252 252 251 250 249 248 246 246 246 246 245 245 245 245 246 246 246 247 247 247 248 249 249 250 251 252 253 253 255 256 258 260 261 262 263 264 266 267 266 266 265 264 264 263 262 262 262 262 262 262 263 263
263 262 262 262 261 261 260 261 260 260 260 260 260 259 259 258 258 258 258 258 258 257 257 256 256 255 254 254 253 253 253 252 252 251 251 250 249 248 247 246 246 246 245 245 244 245 245 244 245 245 246 247 248 248 249 249 250 251 252 253 254 255 257 259 260 261 262 263 266 268 267 266 265 265 264 263 262 262 261 261 262 262 262 263 263
261 261 260 260 260 260 260 259 259 259 259 258 258 258 257 257 257 257 257 257 257 257 257 256 254 254 253 253 252 252 252 251 251 251 250 250 248 247 246 246 247 245 244 245 244 244 244 244 245 246 246 246 247 247 248 249 250 251 252 253 254 257 259 260 261 262 264 266 268 268 267 266 265 265 264 263 262 262 262 262 262 262 262 262 262
260 260 259 259 259 259 259 259 259 258 258 258 257 257 257 257 256 256 256 256 256 255 255 254 254 253 252 251 252 251 251 251 251 250 250 249 248 247 246 246 244 244 244 244 244 243 243 242 243 244 245 246 247 247 248 249 250 251 251 253 256 258 260 262 264 266 267 268 268 267 266 265 265 265 264 263 262 262 262 262 262 262 262 262 262
259 259 258 258 258 258 258 258 257 257 258 257 257 256 256 256 256 256 255 255 254 254 254 254 253 252 252 252 252 251 251 251 251 250 250 249 248 247 246 245 245 245 244 243 244 244 243 242 243 245 245 247 247 248 248 249 250 251 253 256 259 262 264 265 265 266 268 269 268 266 265 265 265 264 263 263 262 262 262 262 262 262 262 262 262
Wind_Speed
15 16 14 15 14 15 16 15 15 13 11 12 13 12 11 11 11 10 9 12 11 12 12 12 12 11 11 10 11 10 11 11 10 10 9 9 8 8 8 8 8 6 7 6 5 5 4 4 3 3 3 2 2 2 1 1 1 2 2 2 3 2 2 5 10 14 16 3 9 5 3 9 11 5 14 11 12 12 11 11 12 10 11 10 13
15 16 15 16 17 17 15 12 12 11 13 12 13 12 11 12 11 10 13 11 12 13 14 12 12 12 11 11 10 10 10 10 10 10 10 10 9 7 8 8 8 7 6 6 5 5 5 4 3 4 3 3 3 2 2 2 2 3 3 2 3 3 2 3 6 9 18 15 8 12 6 4 13 7 10 16 11 12 13 10 9 9 9 10 10
17 14 13 14 17 16 13 12 12 13 14 13 13 13 12 11 11 13 12 11 11 12 13 13 13 12 12 11 11 10 10 10 9 9 9 10 10 8 8 8 9 9 8 7 7 6 5 5 5 4 4 3 3 3 3 3 3 3 4 3 3 3 3 4 5 9 12 16 11 13 11 7 10 15 12 11 13 11 14 11 9 10 9 10 12
14 14 15 16 15 12 13 12 12 13 15 14 15 13 12 11 11 12 12 11 13 11 11 13 13 13 13 12 11 10 10 9 8 8 9 10 9 9 8 8 8 8 8 8 8 7 7 6 5 5 4 4 4 4 3 4 3 3 4 4 3 4 4 4 6 8 10 13 16 9 15 12 9 9 10 12 10 12 10 12 12 11 11 11 11
12 14 14 14 13 13 14 13 14 15 16 13 15 13 13 12 12 13 12 12 12 11 11 11 12 13 13 13 12 11 11 10 10 9 8 7 8 9 9 8 8 8 8 8 7 7 7 6 5 6 5 5 4 5 4 5 4 4 4 4 4 4 4 5 6 7 10 14 16 13 10 14 9 10 10 12 14 12 11 12 12 13 13 13 10
14 13 13 13 13 15 15 14 16 17 17 14 15 14 13 13 13 11 13 13 12 12 13 12 12 14 12 12 12 11 11 10 10 10 9 8 8 8 8 8 8 7 7 7 7 6 6 6 6 6 6 6 6 6 6 7 6 5 6 5 5 5 6 6 6 7 9 13 12 17 14 10 16 12 9 13 11 15 18 15 11 10 12 16 13
13 13 14 14 14 15 15 17 17 17 16 15 13 12 13 13 13 13 12 14 14 13 13 14 12 13 13 12 12 12 12 10 10 10 10 9 10 10 9 8 7 7 6 6 5 5 5 5 5 6 7 7 7 7 6 6 5 7 7 6 6 6 6 6 7 9 10 12 14 12 14 12 10 19 14 8 13 11 15 22 21 9 7 15 19
15 15 15 15 15 16 17 17 16 15 13 12 12 12 12 12 13 12 12 14 15 15 16 15 12 11 12 12 12 11 11 10 10 10 10 10 9 9 9 9 8 6 6 5 5 4 5 5 6 7 8 7 6 6 6 6 5 7 7 6 6 7 7 7 9 10 12 13 14 14 12 13 12 11 13 12 15 13 9 12 22 25 20 16 13
14 14 14 15 17 17 15 12 10 10 11 12 12 13 14 13 13 13 13 13 12 14 14 14 14 13 11 12 11 11 11 11 11 11 11 10 9 10 9 9 8 8 6 6 5 5 5 5 7 7 8 10 13 11 10 9 6 6 7 6 6 7 8 8 9 9 10 11 14 14 16 16 15 13 15 9 12 13 15 13 16 21 20 18 20
14 15 16 18 17 14 12 10 11 11 12 14 15 14 13 13 13 13 14 13 13 13 13 13 14 15 14 12 11 11 11 10 12 19 15 11 11 9 8 8 8 8 8 7 6 7 7 6 7 11 13 13 14 14 14 14 14 9 6 7 7 7 8 8 8 8 8 8 11 11 13 14 16 14 15 12 14 16 18 16 15 14 15 20 20
14 15 17 17 14 11 11 13 13 14 15 13 11 13 13 12 13 13 12 12 13 13 13 14 13 12 14 14 14 12 10 10 21 21 21 19 12 10 10 9 9 9 8 8 8 8 8 8 8 10 12 13 11 15 13 14 13 14 15 16 13 8 6 8 9 9 7 10 10 11 11 13 14 9 11 11 11 11 14 13 18 14 19 17 24
14 16 17 12 11 13 13 12 13 13 12 13 13 12 11 12 13 13 12 13 12 11 13 14 13 12 11 12 13 12 11 15 23 23 22 23 17 9 8 10 9 9 9 9 8 8 8 8 8 8 8 8 6 6 9 12 13 13 14 15 16 18 18 13 12 11 10 11 13 12 15 18 21 16 17 16 19 20 18 21 17 21 18 22 18
15 14 13 12 13 12 11 13 13 12 13 12 12 12 13 13 13 13 14 12 10 12 13 13 12 12 12 14 13 12 10 19 23 24 23 22 21 15 8 10 10 9 9 9 8 8 8 8 8 8 7 13 9 6 6 6 10 14 15 16 17 18 19 21 22 17 13 14 15 17 14 17 18 21 14 18 16 21 22 19 20 17 21 18 25
12 13 11 11 12 12 12 13 13 13 11 11 12 13 13 15 13 11 11 11 12 12 12 13 12 13 13 13 11 10 10 17 23 23 23 23 22 16 9 10 8 8 9 8 7 8 9 8 8 8 5 5 4 6 6 7 7 8 9 10 10 14 18 22 22 24 22 17 17 19 20 14 20 16 22 17 21 18 18 20 19 19 18 22 22
11 11 11 11 11 11 12 12 13 12 12 12 12 13 14 12 13 12 13 14 15 15 15 14 13 12 11 10 10 10 9 18 22 24 23 23 22 15 8 8 7 7 8 8 8 9 9 9 7 5 4 5 6 8 7 8 8 8 9 9 9 9 8 9 11 12 14 15 18 19 20 16 15 19 15 18 14 16 15 20 21 19 21 20 18
11 9 10 11 13 13 13 13 13 12 13 14 14 15 14 15 15 12 11 10 9 9 8 10 12 13 11 11 10 10 9 20 23 24 24 23 23 11 9 9 9 8 8 9 9 9 8 6 5 5 6 6 10 14 11 8 7 7 7 7 7 9 11 14 19 19 16 14 14 15 16 20 25 23 22 20 18 15 15 14 14 15 15 16 16
9 10 10 11 11 11 12 13 13 14 14 15 15 15 15 14 12 10 11 11 12 11 12 11 10 11 11 11 11 9 9 17 24 24 24 24 19 9 10 8 8 9 9 10 9 7 6 6 6 6 7 7 11 12 12 11 6 6 7 8 9 11 11 8 14 21 23 25 28 30 31 32 31 30 29 32 26 22 16 16 17 12 16 18 19
8 8 10 10 11 11 12 13 14 14 14 16 16 13 10 9 11 12 14 13 12 11 10 10 9 10 12 12 11 10 9 16 25 24 23 25 16 9 9 8 8 8 8 8 5 6 8 14 11 8 8 8 11 11 11 10 6 6 8 11 11 9 8 9 9 9 19 26 28 28 24 23 26 30 31 31 31 25 13 16 15 14 17 16 18
9 11 10 9 9 9 10 11 12 13 14 13 12 14 14 13 10 9 9 10 10 9 9 10 9 8 9 9 13 12 9 15 24 23 24 24 16 9 8 8 7 7 7 7 7 6 7 10 13 11 9 8 11 11 12 9 5 7 8 8 9 10 9 7 9 12 12 10 9 9 12 15 15 14 18 28 28 24 17 16 14 11 16 15 15
3 3 5 7 8 9 9 11 11 13 14 12 11 11 9 10 11 11 9 8 9 9 9 9 11 10 9 10 10 10 11 10 16 25 23 24 21 10 8 9 9 8 8 7 6 6 7 7 9 11 11 10 10 11 10 12 8 6 6 6 6 7 6 9 11 11 8 7 9 10 12 13 13 14 15 15 15 15 15 15 14 13 13 14 14
4 4 4 5 7 9 9 11 12 10 10 11 10 10 10 12 12 12 11 9 10 10 11 10 10 9 9 10 9 10 10 12 15 26 24 25 23 17 9 9 8 8 7 8 7 6 6 7 5 7 10 10 10 11 11 12 12 8 6 5 7 11 13 9 8 11 8 10 10 11 11 10 10 10 11 13 14 14 14 15 13 14 14 14 16
4 4 5 5 6 7 8 8 9 10 9 11 12 11 9 10 11 12 10 10 12 12 11 10 10 9 8 9 8 9 11 15 12 22 25 24 23 22 11 9 9 8 8 7 7 7 7 5 4 6 9 10 10 11 12 12 14 8 7 13 17 18 12 7 6 7 8 9 9 10 10 10 9 9 10 11 12 11 12 11 13 13 14 15 16
4 5 6 7 7 7 7 8 9 8 10 11 13 12 10 11 11 11 12 11 13 13 12 11 11 10 9 9 8 9 9 11 16 13 22 24 24 21 20 14 18 10 8 7 8 7 5 5 4 8 10 9 10 12 12 13 11 8 13 15 16 17 13 5 7 7 8 9 9 10 10 9 10 10 10 11 11 11 12 12 13 15 16 17 18
2 4 6 7 8 8 9 9 9 8 10 10 10 11 11 11 11 11 11 12 12 12 10 11 11 12 13 11 9 8 8 8 14 18 17 24 22 23 22 21 20 11 8 7 6 5 4 5 5 10 9 9 9 9 10 10 8 12 13 14 15 13 6 7 6 7 9 9 10 9 9 8 9 10 10 11 11 10 12 13 13 14 14 15 17
4 4 5 6 7 8 8 9 10 11 11 12 13 11 12 12 12 10 12 11 12 13 12 12 13 13 11 12 11 10 9 9 9 15 21 20 23 23 22 21 20 19 10 7 6 6 7 10 12 9 5 4 6 7 7 8 12 12 12 13 11 4 5 5 7 7 9 9 10 10 10 10 11 12 13 14 13 13 12 13 13 14 14 17 18
5 7 5 6 7 7 9 8 9 11 12 11 12 12 14 13 12 12 12 12 12 13 13 13 12 13 13 11 12 11 10 9 10 10 13 16 17 21 21 21 19 18 13 9 12 11 11 6 4 4 3 2 2 1 2 5 11 12 12 11 6 5 4 5 7 8 9 10 10 11 11 11 12 12 13 12 12 11 13 13 13 12 13 13 14
7 6 8 7 6 8 10 9 8 9 10 9 10 11 11 12 12 12 12 13 13 13 13 14 14 12 10 12 10 10 10 10 10 10 10 9 9 12 14 13 17 15 9 7 7 5 6 5 3 2 2 1 2 5 6 8 7 7 4 4 4 5 5 5 7 8 9 10 11 10 10 10 11 11 11 11 11 12 10 14 14 14 13 14 15
9 9 9 8 8 9 10 10 11 10 11 12 12 11 12 13 14 16 17 17 16 16 15 15 15 15 15 13 12 10 10 10 10 11 12 10 9 9 8 8 8 7 7 6 6 5 5 5 6 3 3 3 2 1 2 3 5 5 5 4 4 6 8 12 13 9 9 9 10 10 10 10 10 10 10 11 11 12 11 11 13 15 12 11 15
10 9 8 8 9 9 9 9 10 10 11 10 10 11 13 14 15 13 13 12 16 18 18 16 14 14 15 16 15 12 12 14 12 11 12 17 13 11 10 10 8 7 9 12 8 6 5 4 3 3 2 1 0 2 3 3 4 4 5 5 5 4 4 4 6 8 8 8 10 10 11 10 12 11 11 12 13 11 11 13 13 13 14 13 15
9 10 9 10 9 9 9 9 10 9 10 10 10 8 8 12 9 9 9 13 17 14 13 14 15 14 14 13 17 20 19 16 22 28 24 23 22 18 15 16 14 10 13 18 10 6 4 4 3 2 0 0 1 3 3 3 4 5 5 5 5 4 5 6 6 7 8 9 9 10 11 11 12 10 10 11 13 11 13 15 14 12 13 15 15
10 10 9 10 11 11 10 9 9 9 8 8 8 9 7 8 14 13 9 11 15 17 16 12 15 18 14 13 10 7 10 20 26 24 24 24 23 22 20 19 19 18 18 13 6 6 5 5 3 1 1 1 2 3 3 3 5 5 6 5 4 6 7 6 7 8 8 9 10 10 11 12 12 12 12 12 13 14 14 11 12 12 12 14 14
12 11 11 11 11 11 10 10 10 10 9 8 9 8 8 8 7 15 15 12 17 17 18 16 17 19 15 14 14 9 18 25 28 27 27 26 24 23 22 21 20 20 20 14 8 5 6 6 4 3 2 2 3 3 3 4 5 5 4 5 6 5 6 7 7 7 8 9 10 11 10 10 11 11 12 13 15 14 12 13 10 11 14 13 15
14 12 10 10 10 11 10 10 11 11 11 11 11 10 11 11 11 9 9 14 18 18 19 18 19 20 18 19 20 18 23 26 29 28 26 26 25 23 22 22 21 20 17 8 7 7 5 5 4 3 3 4 3 4 4 5 5 4 3 4 6 7 7 9 11 9 9 10 11 11 11 11 11 13 13 12 12 13 14 11 12 12 12 15 15
16 14 11 11 11 11 12 11 11 12 11 11 11 12 12 11 11 11 10 10 12 14 17 19 20 21 20 20 20 22 25 27 27 27 27 26 25 24 21 16 19 17 12 8 7 7 6 5 4 3 3 3 3 4 5 5 4 4 4 5 6 7 8 9 8 9 9 10 10 10 11 11 12 12 14 13 13 12 11 14 13 14 12 13 14
14 15 18 12 11 12 11 11 11 11 11 11 12 12 12 11 11 12 13 14 13 13 11 13 19 23 18 17 20 25 26 27 27 26 27 25 26 26 21 12 9 7 6 5 6 7 7 5 5 3 3 4 4 4 5 4 4 4 4 5 6 6 7 7 8 9 10 10 10 9 10 12 13 12 12 14 14 13 13 14 13 14 15 15 14
13 12 11 13 12 10 10 10 10 11 11 11 10 10 10 11 12 12 12 11 11 11 10 10 11 17 25 21 25 25 26 25 24 24 25 25 25 23 12 8 8 6 6 5 6 5 5 5 4 3 3 4 4 5 5 4 4 4 4 5 6 7 7 8 9 10 10 9 10 12 13 12 11 12 12 12 13 14 14 15 15 15 14 14 15
12 11 11 10 10 9 9 9 10 10 10 10 10 10 11 11 11 11 11 12 12 11 12 12 13 14 17 13 20 24 26 23 23 22 22 24 23 12 8 8 8 7 7 6 5 5 5 3 3 3 4 4 5 5 4 4 4 4 5 6 6 8 8 8 10 10 10 10 11 11 12 11 12 12 13 14 14 13 14 15 15 16 17 19 22
13 12 11 10 9 10 9 10 10 12 11 10 10 11 11 11 12 12 12 12 13 13 14 14 14 15 15 13 19 13 17 22 23 17 15 13 9 7 7 7 7 8 7 5 6 5 5 3 3 4 4 4 5 5 4 4 3 4 5 6 7 7 14 13 13 12 11 10 11 11 11 12 12 12 14 13 13 12 14 15 16 17 18 17 12
11 16 17 15 12 10 10 9 10 11 10 11 11 11 12 12 12 12 12 12 13 13 13 14 14 13 14 13 13 15 17 11 10 8 7 6 6 6 7 7 7 6 6 6 5 4 4 3 4 4 5 5 5 5 4 4 3 4 5 6 7 8 9 8 10 10 10 10 11 10 11 11 12 12 13 12 13 13 15 15 16 16 17 15 15
11 10 11 15 9 10 9 9 10 11 11 12 11 11 11 12 13 12 12 13 13 13 13 14 13 13 12 12 13 13 14 12 10 9 10 10 8 6 7 8 7 7 7 6 5 4 4 4 4 5 5 5 5 4 3 3 4 5 6 6 7 8 9 9 10 10 10 10 10 11 11 12 13 13 12 10 12 13 16 17 18 16 16 16 17
11 10 8 11 12 9 9 10 10 11 10 11 11 12 12 12 12 11 12 13 13 12 12 11 11 10 9 14 23 19 13 12 11 9 8 8 9 8 6 6 7 6 6 6 5 5 5 4 4 5 5 5 4 3 3 3 5 5 6 6 7 8 9 10 10 10 11 11 11 11 11 12 13 12 12 12 17 17 16 15 14 14 15 15 15
11 9 8 7 9 9 9 9 8 10 10 10 11 11 11 11 11 11 12 13 11 12 12 11 9 7 13 28 25 24 13 9 8 8 7 7 7 7 6 6 5 6 6 5 6 5 4 4 4 5 5 5 3 3 3 4 5 5 5 6 7 8 9 9 10 10 11 11 12 12 13 14 15 14 14 15 15 14 15 15 13 15 15 15 15
11 7 7 7 9 9 10 10 10 10 10 10 9 8 9 10 10 10 11 11 12 12 12 12 10 9 13 22 22 21 10 9 6 9 8 7 7 7 6 6 5 5 4 4 4 5 4 4 4 5 5 5 4 4 5 6 5 5 6 7 8 9 9 10 10 10 10 11 12 14 16 14 14 11 12 12 12 14 14 16 16 15 15 16 16
6 5 6 7 7 8 7 9 10 10 9 11 11 11 12 11 11 12 12 12 11 10 11 12 12 12 12 14 14 10 9 9 8 8 8 7 7 7 6 5 5 5 4 4 3 4 4 4 4 5 4 5 4 5 6 6 5 5 6 7 8 9 10 9 10 11 11 12 12 12 13 13 13 12 11 13 12 14 15 17 16 16 16 14 15
5 6 7 7 7 8 8 9 9 9 10 10 9 9 9 10 11 11 12 12 10 10 10 10 10 9 9 10 10 10 9 8 8 8 7 7 7 6 6 5 5 5 4 3 3 3 3 4 5 4 5 5 5 6 6 5 5 6 6 8 8 9 10 11 11 11 12 13 12 13 13 11 12 12 13 12 13 15 15 17 15 16 17 16 15
5 6 6 7 7 7 8 8 8 10 11 10 11 10 9 9 9 10 10 10 11 12 11 9 8 8 9 9 9 9 9 9 8 7 6 6 6 6 5 4 4 3 3 3 3 3 4 5 4 4 5 6 6 5 5 5 6 6 7 7 9 9 10 11 11 11 12 13 12 13 12 11 12 11 14 15 13 14 15 16 15 15 15 17 17
5 6 7 7 8 7 7 8 9 9 10 9 10 10 10 9 9 9 9 11 11 10 11 10 10 10 9 9 9 10 9 8 8 7 7 7 6 6 5 4 4 3 3 3 2 3 2 3 3 4 6 6 6 6 6 6 6 6 7 7 7 9 9 9 10 12 12 13 13 12 11 12 12 12 14 14 13 15 15 15 16 17 17 15 15
6 6 6 7 8 8 8 8 9 9 9 9 9 9 9 9 10 10 9 10 11 10 10 9 9 9 8 8 8 8 8 7 7 6 6 6 5 6 5 4 4 4 3 2 1 1 2 2 4 5 6 6 6 6 6 7 7 7 7 7 8 9 13 15 12 12 12 12 12 11 11 12 12 12 12 14 15 14 15 15 15 13 16 15 14
7 7 7 8 8 8 8 9 9 9 10 10 10 10 9 10 10 10 10 10 10 9 10 10 10 9 8 8 8 7 7 7 8 6 6 5 5 5 4 4 4 4 3 1 1 1 2 3 4 5 5 5 6 6 7 7 8 8 8 8 11 17 19 21 15 10 17 15 11 10 11 12 13 13 13 14 15 15 15 15 15 15 14 16 16
7 7 8 8 8 7 7 7 8 8 8 9 10 10 10 10 10 10 11 11 8 7 7 10 11 11 12 12 9 8 8 8 7 7 6 5 5 4 4 4 3 2 2 1 1 2 3 3 4 4 5 5 6 6 7 7 8 9 8 10 16 20 20 21 22 23 19 12 11 9 11 12 13 12 11 13 15 17 17 16 16 16 17 17 17
8 8 8 8 8 8 8 9 9 8 9 9 10 10 10 10 10 11 10 9 9 7 7 6 9 11 9 8 7 8 7 7 6 6 6 5 5 4 4 4 3 2 1 1 2 3 3 3 3 4 4 5 6 6 6 7 8 9 12 17 20 20 21 21 16 19 26 19 10 10 11 13 13 12 12 13 14 16 18 18 18 17 16 16 16
Wind_Direction
194 204 198 206 205 205 206 203 202 196 191 192 194 194 188 184 184 181 154 180 168 173 176 178 176 177 175 179 179 179 176 174 173 167 167 168 172 165 162 155 146 144 139 135 134 132 133 132 129 116 115 118 133 138 175 180 226 259 251 267 267 274 292 277 282 288 294 152 298 314 0 330 307 310 302 303 299 297 285 288 292 290 290 289 292
204 204 199 203 203 208 206 201 197 192 194 191 195 191 187 184 177 164 180 177 173 176 177 174 175 174 175 178 180 183 184 179 173 169 169 169 168 165 162 155 149 144 142 146 137 135 136 135 141 140 140 144 162 174 193 198 244 242 252 235 258 265 265 292 274 283 293 303 307 304 314 333 299 305 296 306 297 296 292 284 280 279 288 289 285
207 203 202 202 206 206 198 196 192 193 193 194 196 192 187 179 173 177 178 175 177 177 176 172 172 172 174 176 178 182 184 180 179 174 173 170 167 166 163 158 155 151 151 153 151 145 145 157 169 155 151 152 185 182 189 212 212 230 245 244 248 259 265 260 286 288 290 293 309 306 307 321 298 306 305 290 293 291 293 291 285 292 284 286 290
204 200 202 206 205 196 198 196 190 193 196 198 196 191 182 179 174 178 177 171 175 177 172 171 169 172 173 175 179 179 179 181 178 181 176 170 167 163 159 159 156 156 156 157 160 162 167 169 178 162 159 165 184 184 203 189 196 211 229 249 243 262 266 257 263 275 291 295 300 306 305 310 299 287 291 290 291 297 290 291 294 285 284 282 278
202 205 205 206 197 196 198 191 194 197 200 196 196 187 183 177 177 178 171 174 174 167 170 170 171 172 176 176 174 177 181 177 178 178 176 170 164 158 160 159 161 162 161 159 163 164 170 177 169 157 163 178 194 191 201 200 210 203 224 235 238 249 251 251 258 265 280 282 290 291 294 295 289 290 298 300 307 298 287 290 295 296 290 277 269
205 202 201 200 199 198 197 193 199 200 199 196 193 187 181 178 177 177 172 171 169 172 169 173 177 177 174 174 174 176 176 178 178 175 170 165 161 161 160 159 158 155 156 157 155 159 167 165 163 167 176 185 199 198 199 208 203 206 219 228 233 236 244 249 250 255 264 272 279 296 294 289 304 288 297 303 303 310 307 294 277 280 288 296 289
200 200 200 200 200 201 196 199 200 199 196 196 187 180 181 180 176 176 173 170 169 171 175 173 178 176 174 169 175 174 174 174 173 171 170 170 167 163 158 152 146 151 154 155 155 158 162 167 171 178 188 199 200 201 203 204 202 213 216 223 231 231 242 253 250 257 259 271 277 271 287 287 282 298 301 282 289 293 302 308 301 278 269 297 301
198 199 198 202 204 203 202 204 200 198 194 187 182 182 178 176 178 172 167 172 175 175 174 176 173 172 173 173 173 170 169 170 171 173 174 172 166 160 158 157 153 149 147 150 156 161 168 174 184 196 201 207 204 206 203 207 207 215 220 220 222 232 241 247 259 258 265 269 271 284 281 289 295 274 279 295 296 285 266 288 299 306 313 297 277
199 200 202 206 208 206 203 199 194 189 185 182 179 180 181 177 173 171 174 175 175 175 173 170 167 170 171 172 168 168 172 175 177 176 170 170 167 163 158 156 154 154 150 153 161 167 178 189 200 205 210 216 221 221 217 215 207 216 224 213 220 231 248 252 248 253 258 264 272 278 281 283 282 287 292 285 285 288 298 291 285 290 297 298 299
198 199 202 209 210 203 192 186 186 184 181 184 186 180 176 175 173 173 177 175 172 170 170 172 172 172 170 170 170 173 179 179 180 178 175 168 163 158 156 156 155 153 154 159 175 186 191 194 203 211 220 226 230 233 238 243 242 235 216 195 213 221 238 246 250 249 251 256 260 272 275 272 277 281 283 274 285 289 293 290 284 290 294 294 291
199 200 208 211 203 186 182 187 181 185 189 183 178 176 176 173 174 174 173 172 172 171 170 172 176 175 172 171 174 179 179 179 181 180 177 171 162 163 161 159 156 158 162 167 175 183 191 198 203 219 227 232 234 238 245 247 252 258 264 266 266 255 233 249 249 251 243 252 252 249 252 268 276 266 266 280 289 289 296 294 294 297 299 301 300
200 206 210 201 189 187 189 182 181 186 178 183 178 176 169 170 174 174 172 172 173 168 174 177 172 171 172 175 178 179 181 182 183 181 178 176 169 156 154 159 161 164 168 172 176 183 192 199 207 207 214 211 208 228 242 248 254 260 265 268 269 269 268 268 273 271 270 280 283 277 285 285 292 292 295 300 300 300 295 295 291 293 291 292 286
203 207 203 191 192 186 181 180 184 179 183 177 172 168 172 173 174 174 178 174 162 173 178 170 176 173 174 176 182 183 181 185 185 183 180 176 170 161 160 162 164 167 169 173 179 187 194 199 201 212 212 221 224 215 205 229 251 263 270 271 273 273 274 275 275 276 283 282 281 284 281 288 289 288 286 291 294 293 294 290 288 285 283 279 282
201 205 196 193 189 184 180 179 182 182 174 169 169 173 174 181 177 172 162 162 172 175 175 177 173 177 179 180 180 181 182 190 187 184 181 177 171 163 163 163 160 161 167 173 185 194 200 202 203 210 199 204 216 220 228 235 239 246 252 252 252 257 265 268 274 279 280 279 279 278 278 273 278 287 291 291 292 286 291 286 285 284 276 271 276
201 200 193 192 180 182 182 181 179 173 172 170 172 177 179 174 172 173 172 175 176 179 177 177 179 176 176 175 176 181 185 192 188 186 183 176 171 158 158 156 159 166 173 181 192 200 205 204 207 202 202 215 217 226 227 234 236 242 244 244 242 240 243 245 243 244 252 258 265 270 278 278 279 282 284 283 272 272 271 275 278 280 280 281 276
200 191 193 189 189 186 181 180 176 172 172 174 176 179 179 179 176 172 170 173 175 169 176 176 175 175 174 173 172 181 185 195 190 188 185 181 172 157 162 164 166 170 178 187 193 195 196 203 202 208 212 216 233 249 258 256 249 250 262 266 271 271 265 265 271 277 278 278 280 285 289 290 289 289 290 291 292 294 294 294 292 294 296 293 286
201 195 196 188 187 184 182 179 178 176 175 176 180 180 178 177 172 164 168 174 173 177 177 175 172 170 171 175 175 178 184 195 189 187 185 182 176 149 157 158 159 160 173 181 188 192 197 202 205 209 223 223 242 255 257 267 273 272 275 279 272 269 266 265 281 287 289 290 289 289 289 289 293 296 299 301 301 304 307 299 289 300 293 288 288
198 190 198 190 185 181 182 181 180 178 177 183 181 177 169 165 172 172 175 172 176 176 166 163 166 171 173 178 179 176 183 193 187 186 184 184 172 156 158 156 155 162 172 179 174 189 209 215 215 218 225 233 242 253 263 271 269 274 275 269 267 266 277 287 291 287 290 288 285 286 292 302 307 306 302 299 296 295 289 284 291 298 284 281 283
197 198 195 183 179 177 178 180 180 178 182 181 174 173 176 173 162 160 170 169 170 160 160 162 162 167 174 173 180 179 180 189 186 186 183 184 173 156 163 157 150 163 170 183 185 193 211 225 231 230 230 238 250 260 266 271 270 264 269 279 284 284 288 304 299 291 280 278 288 306 302 302 305 300 293 293 291 289 282 279 284 275 279 278 277
227 174 163 164 168 170 175 179 182 182 182 174 171 169 157 151 160 165 163 159 156 158 162 164 167 171 167 170 182 174 179 187 186 185 184 186 174 161 161 170 173 171 169 175 190 198 203 218 229 228 236 251 260 261 263 268 270 274 287 282 280 283 300 286 272 279 303 320 304 301 299 297 294 288 289 292 290 285 282 279 278 279 283 291 288
177 180 159 162 168 173 173 181 179 179 173 167 160 155 162 163 158 162 160 159 157 160 164 165 166 168 170 174 174 177 185 179 185 185 184 185 175 163 172 176 171 171 167 174 192 199 210 204 183 224 243 249 255 260 265 272 283 290 289 284 287 286 290 287 306 333 319 309 301 298 294 289 281 279 283 291 292 287 283 278 277 276 277 281 286
157 156 168 170 171 173 178 175 173 166 159 155 158 162 160 157 162 161 159 158 162 166 165 165 166 166 168 172 176 180 192 190 179 186 185 185 184 170 168 176 169 158 175 187 197 203 194 175 140 218 241 253 259 263 272 285 292 295 293 288 289 295 301 317 337 322 312 302 295 288 287 286 282 282 282 285 290 288 287 286 285 283 282 283 284
170 166 166 169 173 173 171 169 166 165 166 166 161 159 157 157 160 161 160 161 165 166 168 167 165 167 168 178 178 183 190 192 186 185 185 183 186 176 173 173 179 172 180 190 193 183 170 142 151 231 246 253 260 273 288 294 302 295 291 293 297 305 315 353 327 314 297 292 287 285 283 282 288 290 292 293 297 295 292 285 278 278 277 276 272
170 179 181 178 170 171 169 167 163 163 163 160 161 156 161 162 162 168 166 166 168 169 175 171 172 174 176 179 180 179 187 185 191 187 186 185 187 185 177 178 182 176 178 180 177 168 150 163 197 225 236 255 276 293 296 300 297 295 296 301 310 320 345 324 310 292 288 287 283 281 281 280 284 291 295 299 297 291 285 280 272 268 267 272 272
184 196 199 189 182 173 166 170 168 166 167 164 163 164 162 164 166 174 170 175 175 176 177 177 182 183 179 180 177 175 182 182 187 189 188 187 186 187 182 179 185 181 168 165 157 156 168 198 216 228 242 301 301 307 313 307 299 294 303 313 322 352 324 297 288 288 286 284 283 284 285 285 289 290 292 293 291 288 281 279 274 267 265 270 269
203 209 196 193 190 173 172 175 174 174 171 176 173 169 168 172 174 175 180 183 181 180 178 182 184 183 186 179 176 175 176 176 181 182 187 187 187 188 186 186 186 181 151 151 156 182 205 191 134 86 56 5 6 328 283 280 295 305 315 321 329 305 280 283 284 286 281 285 286 289 290 294 293 292 291 289 288 288 292 287 289 280 284 283 283
220 210 204 195 185 180 184 181 177 179 181 179 177 171 172 174 175 179 185 185 187 188 184 183 185 184 175 178 169 168 173 178 179 179 176 180 179 184 184 185 179 175 153 154 159 132 126 108 100 106 82 336 327 313 308 310 311 308 295 292 278 273 273 261 267 278 286 287 288 285 286 287 290 292 292 294 291 289 286 290 288 289 291 291 286
216 216 207 196 192 191 194 184 179 183 189 186 182 180 183 184 183 185 184 188 186 191 187 188 189 185 182 172 167 163 173 178 184 180 175 173 175 179 172 160 160 139 138 134 122 123 104 87 77 61 58 36 13 343 290 271 277 282 285 276 271 271 280 290 293 286 277 277 281 288 290 293 290 291 291 290 287 283 285 280 286 291 290 291 290
220 214 204 192 202 197 196 190 194 189 191 196 203 196 187 188 196 202 207 194 190 185 186 193 191 184 175 172 168 166 169 184 191 181 179 177 173 169 162 159 146 142 146 133 110 95 92 87 86 64 60 71 311 277 275 279 272 266 269 268 263 269 279 272 272 277 283 289 292 293 294 293 291 291 290 290 287 286 286 286 284 284 290 288 280
221 221 205 203 200 190 199 196 197 196 193 196 195 200 206 208 208 206 206 213 220 223 205 196 187 175 177 182 176 173 181 180 175 180 179 177 177 168 160 156 151 149 173 159 137 117 120 125 117 130 119 172 266 272 273 278 286 288 265 295 299 291 281 279 277 284 290 290 289 294 294 294 292 292 287 284 288 283 284 287 289 291 293 293 289
227 223 208 210 203 195 194 193 194 197 195 193 194 194 193 209 216 217 219 215 215 219 211 208 188 185 179 166 174 171 159 163 168 169 171 173 173 169 165 164 161 169 149 124 106 128 142 138 151 140 190 203 234 248 267 272 278 280 294 298 292 290 290 282 285 287 288 291 290 287 287 291 288 292 293 290 290 290 292 282 278 284 282 287 287
230 222 213 210 198 196 196 192 186 188 191 186 189 186 189 190 205 215 216 207 202 208 211 199 189 184 180 167 157 152 159 162 163 166 169 171 171 168 166 164 165 156 152 137 111 132 137 146 156 183 186 209 245 248 251 257 260 267 279 296 293 286 287 286 290 290 290 290 290 287 285 285 286 288 290 290 290 292 287 292 291 292 292 284 283
235 234 218 205 201 195 193 191 189 187 187 184 187 185 187 185 186 182 199 200 194 198 201 197 191 187 176 170 169 162 161 163 165 167 171 172 166 162 160 159 156 147 133 113 136 143 154 151 164 184 192 216 231 237 244 246 253 259 262 268 283 287 287 290 295 289 284 283 285 287 287 286 288 290 288 288 289 291 294 292 292 289 288 292 289
235 235 220 205 197 196 197 193 190 192 191 189 188 187 189 187 181 176 167 169 184 194 196 195 189 181 177 172 165 164 163 162 165 168 169 165 159 156 153 147 143 140 131 140 136 151 149 157 170 187 205 227 238 248 256 252 253 258 268 271 272 283 287 291 292 288 287 284 282 279 287 291 290 293 296 297 290 285 284 293 298 299 294 291 291
244 239 230 211 200 202 197 194 193 189 187 187 188 187 187 182 177 179 178 177 177 175 169 176 179 171 165 166 166 164 163 165 166 165 163 160 156 153 139 124 113 87 80 98 131 141 154 161 170 193 200 229 240 241 253 259 260 266 270 278 285 284 287 289 285 286 283 283 283 285 288 288 291 289 291 295 297 299 297 298 298 296 296 296 292
245 241 231 214 209 204 196 196 190 188 187 187 182 184 179 177 180 182 180 177 172 162 156 158 158 168 163 163 163 164 165 163 161 160 161 158 154 134 124 141 125 129 125 138 140 149 146 158 162 201 209 235 242 248 246 257 264 263 270 275 286 288 289 286 284 281 278 283 289 291 292 289 285 290 293 289 283 290 298 300 300 298 293 292 291
243 239 232 215 209 201 198 190 189 185 181 175 177 180 182 183 179 178 176 175 167 162 155 148 146 154 156 159 163 162 161 158 157 157 157 157 142 129 133 142 145 140 143 150 149 146 153 184 175 205 228 233 248 248 253 257 263 273 285 290 283 285 280 274 277 283 294 293 288 286 285 289 294 295 296 293 295 295 298 301 298 297 299 299 303
242 236 231 211 195 197 189 190 186 175 176 176 179 179 180 181 180 178 175 170 166 160 158 159 158 156 155 160 159 152 154 152 150 146 142 117 91 115 131 135 141 147 148 148 153 154 162 171 187 206 241 236 250 253 255 267 272 284 287 286 287 273 288 290 294 289 281 283 285 289 292 295 297 297 295 292 296 301 302 302 302 301 300 295 293
249 242 234 214 200 193 191 180 175 175 179 176 177 177 180 178 177 177 172 167 163 163 161 159 161 158 155 153 146 147 138 126 128 129 120 113 108 118 133 134 132 129 139 145 154 148 152 181 213 217 234 240 245 254 262 280 288 291 284 285 282 285 288 285 284 285 287 284 287 290 294 294 295 297 295 294 300 303 301 301 302 301 301 302 300
258 249 234 214 192 190 178 181 175 176 178 174 179 178 177 178 179 175 167 164 163 162 161 160 160 158 155 147 144 141 140 143 137 140 134 135 135 140 135 141 142 146 151 155 154 159 169 204 208 225 238 240 244 254 262 272 281 280 280 276 281 285 286 285 285 287 288 288 288 290 295 297 297 294 290 294 301 303 308 306 304 301 301 300 300
256 242 226 210 190 179 175 176 180 179 177 176 178 175 180 175 172 168 166 163 160 157 154 154 149 150 148 151 153 148 137 139 143 143 147 142 147 143 144 141 144 141 145 150 164 166 178 192 218 225 243 245 246 254 269 274 273 273 273 279 283 281 283 281 280 283 285 290 289 295 297 299 300 299 302 306 310 310 304 300 298 299 299 299 298
247 237 211 195 182 172 171 175 177 172 173 174 176 176 172 171 167 163 160 157 152 149 143 140 141 138 151 148 144 134 121 127 133 135 131 138 145 147 141 136 140 145 148 162 169 168 178 204 225 229 241 253 253 265 267 266 261 266 274 283 282 282 281 282 285 283 287 290 297 298 303 303 298 299 303 308 308 304 303 302 299 301 303 301 301
243 213 191 174 175 170 170 170 164 166 167 170 169 162 158 156 152 150 149 151 153 150 144 140 142 151 148 143 132 124 115 132 129 133 138 139 143 140 146 150 152 152 156 170 161 160 173 201 231 236 237 246 243 248 251 258 259 272 278 277 280 279 281 285 288 288 289 294 298 298 296 294 296 299 308 306 303 306 301 304 305 304 303 303 305
213 178 168 166 163 152 156 156 161 163 165 160 155 156 156 155 154 155 154 151 148 143 145 148 151 151 143 127 117 118 128 133 140 139 143 142 143 145 148 148 135 139 165 161 158 164 175 205 233 252 251 256 255 249 250 249 253 255 268 271 274 279 284 287 288 293 297 299 295 292 294 293 298 309 307 308 306 307 307 307 307 307 309 305 307
170 163 153 151 150 148 151 151 152 150 145 146 148 149 151 150 151 149 146 145 140 139 141 148 148 129 117 124 129 131 135 137 136 138 141 145 144 145 144 145 150 163 150 160 164 166 181 206 226 251 271 268 255 251 254 254 249 248 249 260 266 275 278 281 284 289 293 292 291 294 293 295 310 313 310 306 309 308 306 309 307 308 309 308 310
146 141 142 136 136 136 140 141 142 141 146 147 144 144 141 142 140 141 140 138 140 142 143 139 121 118 120 119 123 129 135 134 135 135 135 136 141 143 136 144 153 151 157 178 178 181 196 205 218 238 255 266 269 266 264 266 265 260 256 248 256 262 268 276 280 285 290 296 293 288 291 307 311 307 308 311 309 307 304 305 307 307 306 307 306
110 115 120 125 129 128 129 132 136 140 137 139 139 137 136 136 133 131 132 134 137 138 138 135 130 128 129 133 138 136 134 132 137 140 146 145 140 140 142 147 140 157 187 192 192 196 212 228 237 242 254 263 272 276 282 278 276 271 267 264 260 269 270 275 287 293 293 289 285 285 302 314 310 310 308 310 308 309 308 307 310 310 308 308 309
92 95 97 106 111 116 121 124 124 123 125 128 127 126 125 123 126 128 128 129 129 130 127 123 118 122 126 132 132 132 126 130 127 134 134 144 141 133 146 154 165 178 178 185 207 205 222 237 248 249 260 269 276 282 283 285 282 277 276 273 270 266 276 283 289 287 283 278 285 300 314 312 308 308 310 312 312 311 311 312 311 309 313 312 312
82 91 97 100 107 115 122 125 126 128 127 124 121 121 123 126 126 127 132 130 133 134 140 135 118 115 125 130 127 123 124 127 131 136 139 142 143 153 161 171 169 169 164 189 206 223 240 250 249 254 254 268 270 274 279 279 280 280 279 277 279 281 286 291 289 277 286 289 300 313 316 311 308 308 310 314 311 312 311 310 313 311 311 315 317
76 79 91 93 97 96 96 102 108 114 116 123 124 123 124 126 129 135 135 134 124 114 116 113 110 120 123 119 130 132 134 139 143 145 144 140 150 161 169 171 165 167 167 192 222 234 238 242 247 257 260 263 265 266 267 271 274 275 276 277 281 288 290 294 300 303 305 312 314 323 317 311 308 307 311 314 314 314 316 317 316 317 317 318 321
78 80 80 84 91 97 100 104 107 112 117 121 122 127 129 130 132 134 127 116 118 123 117 117 128 134 128 129 130 133 139 139 140 137 144 153 162 171 179 173 173 166 185 212 246 250 253 258 267 265 271 269 271 268 269 269 269 267 273 278 284 293 303 311 312 312 312 318 328 325 317 313 309 311 315 318 318 318 316 316 318 319 321 321 323